OK2CME-6 Weather Reports


Display with metric or nautical units.
time (UTC)temp
F
wind
direction
speed
MPH
gust
MPH
rain 1hr
in
rain 24hr
in
rain mn
in
humidity
%
barometer
mb
20260503032817 50 74 2.0 6.0 0.00 0.00 0.00 58 1022.5
20260503030817 50 57 1.0 4.0 0.00 0.00 0.00 57 1022.6
20260503024817 51 57 2.0 6.0 0.00 0.00 0.00 54 1022.4
20260503022817 52 47 2.0 4.0 0.00 0.00 0.00 51 1022.3
20260503020817 55 24 1.0 6.0 0.00 0.00 0.00 47 1022.5
20260503014817 55 18 1.0 4.0 0.00 0.00 0.00 46 1022.2
20260503012817 54 46 2.0 4.0 0.00 0.00 0.00 48 1022.5
20260503010817 54 45 2.0 3.0 0.00 0.00 0.00 48 1022.4
20260503004817 54 43 2.0 3.0 0.00 0.00 0.00 50 1022.6
20260503002817 54 31 1.0 3.0 0.00 0.00 0.00 50 1022.6
20260503000817 56 40 2.0 4.0 0.00 0.00 0.00 45 1022.9
20260502234817 57 54 3.0 6.0 0.00 0.00 0.00 45 1022.6
20260502232817 57 57 3.0 6.0 0.00 0.00 0.00 46 1023.0
20260502230817 56 47 2.0 4.0 0.00 0.00 0.00 47 1023.1
20260502224817 56 39 2.0 4.0 0.00 0.00 0.00 48 1023.3
20260502222817 58 49 2.0 4.0 0.00 0.00 0.00 45 1023.2
20260502220817 59 48 2.0 4.0 0.00 0.00 0.00 44 1023.3
20260502214817 59 43 3.0 6.0 0.00 0.00 0.00 45 1023.5
20260502212817 59 46 3.0 6.0 0.00 0.00 0.00 45 1023.7
20260502210817 58 44 3.0 6.0 0.00 0.00 0.00 46 1024.0
20260502204817 59 33 2.0 6.0 0.00 0.00 0.00 44 1023.9
20260502202817 58 51 3.0 6.0 0.00 0.00 0.00 44 1023.9
20260502200817 59 45 3.0 6.0 0.00 0.00 0.00 44 1024.0
20260502194817 60 38 2.0 4.0 0.00 0.00 0.00 43 1024.0
20260502192817 60 30 2.0 4.0 0.00 0.00 0.00 46 1024.0
20260502190817 62 18 2.0 4.0 0.00 0.00 0.00 44 1023.9